Location: Santa Cristina
(46.5667°N, 11.7167°E)
Time: 17:36:08
(UTC+00:00)

Cosmos 2082 Rocket - Pass Details

Date: 21 April 2021
Orbit: 835 x 852 km, 71.0° (Epoch: 12 May)

Event Time Altitude Azimuth Distance (km) Brightness Sun altitude
Rises 00:57:58 0° 334° (NNW) 3,397 5.8 -26.9°
Reaches altitude 10° 01:00:26 10° 337° (NNW) 2,458 5.0 -26.7°
Maximum altitude 01:06:03 71° 61° (ENE) 883 2.3 -26.2°
Enters shadow 01:08:18 37° 136° (SE) 1,270 2.9 -26.0°
